| time (UTC) | temp F | wind direction | speed MPH | gust MPH | rain 1hr in | rain 24hr in | rain mn in | humidity % | barometer mb |
| 20260509122527 | 58 | 101 | 0.0 | 2.0 | 0.00 | 0.00 | 0.00 | 92 | 1008.2 |
| 20260509121527 | 58 | 179 | 0.0 | 5.0 | 0.00 | 0.00 | 0.00 | 94 | 1008.2 |
| 20260509120549 | 56 | 178 | 0.0 | 5.0 | 0.00 | 0.00 | 0.00 | 95 | 1008.4 |
| 20260509114358 | 55 | 28 | 0.0 | 3.0 | 0.00 | 0.00 | 0.00 | 97 | 1008.2 |
| 20260509113329 | 54 | 132 | 0.0 | 2.0 | 0.00 | 0.00 | 0.00 | 97 | 1008.2 |
| 20260509112341 | 54 | 122 | 0.0 | 3.0 | 0.00 | 0.00 | 0.00 | 97 | 1008.1 |
| 20260509111346 | 53 | 80 | 0.0 | 2.0 | 0.00 | 0.00 | 0.00 | 97 | 1007.8 |
| 20260509110331 | 52 | 347 | 0.0 | 0.0 | 0.00 | 0.00 | 0.00 | 97 | 1007.8 |
| 20260509105323 | 52 | 347 | 0.0 | 0.0 | 0.00 | 0.00 | 0.00 | 96 | 1007.5 |
| 20260509104327 | 52 | 305 | 0.0 | 0.0 | 0.00 | 0.00 | 0.00 | 96 | 1007.6 |
| 20260509103259 | 52 | 311 | 0.0 | 0.0 | 0.00 | 0.00 | 0.00 | 96 | 1007.6 |
| 20260509102306 | 52 | 311 | 0.0 | 0.0 | 0.00 | 0.00 | 0.00 | 95 | 1007.5 |
| 20260509101243 | 52 | 311 | 0.0 | 0.0 | 0.00 | 0.00 | 0.00 | 95 | 1007.5 |
| 20260509100248 | 52 | 311 | 0.0 | 0.0 | 0.00 | 0.00 | 0.00 | 95 | 1007.5 |
| 20260509095243 | 52 | 311 | 0.0 | 0.0 | 0.00 | 0.00 | 0.00 | 95 | 1007.7 |
| 20260509094232 | 53 | 311 | 0.0 | 0.0 | 0.00 | 0.00 | 0.00 | 95 | 1007.8 |
| 20260509093247 | 53 | 311 | 0.0 | 0.0 | 0.00 | 0.00 | 0.00 | 95 | 1007.8 |
| 20260509092305 | 53 | 311 | 0.0 | 0.0 | 0.00 | 0.00 | 0.00 | 95 | 1007.8 |
| 20260509091326 | 53 | 311 | 0.0 | 0.0 | 0.00 | 0.00 | 0.00 | 94 | 1007.8 |
| 20260509090252 | 53 | 311 | 0.0 | 0.0 | 0.00 | 0.00 | 0.00 | 94 | 1007.8 |
| 20260509085245 | 53 | 12 | 0.0 | 0.0 | 0.00 | 0.00 | 0.00 | 94 | 1007.9 |
| 20260509084300 | 53 | 122 | 0.0 | 0.0 | 0.00 | 0.00 | 0.00 | 93 | 1008.3 |
| 20260509083232 | 53 | 82 | 0.0 | 0.0 | 0.00 | 0.00 | 0.00 | 93 | 1008.3 |
| 20260509082230 | 53 | 82 | 0.0 | 0.0 | 0.00 | 0.00 | 0.00 | 92 | 1008.3 |
| 20260509081202 | 53 | 82 | 0.0 | 0.0 | 0.00 | 0.00 | 0.00 | 91 | 1008.3 |
| 20260509075052 | 54 | 82 | 0.0 | 0.0 | 0.00 | 0.00 | 0.00 | 90 | 1008.3 |
| 20260509072918 | 54 | 82 | 0.0 | 0.0 | 0.00 | 0.00 | 0.00 | 89 | 1008.3 |
| 20260509071854 | 55 | 82 | 0.0 | 0.0 | 0.00 | 0.00 | 0.00 | 88 | 1008.3 |
| 20260509070837 | 55 | 82 | 0.0 | 0.0 | 0.00 | 0.00 | 0.00 | 87 | 1008.3 |
| 20260509065841 | 55 | 57 | 0.0 | 1.0 | 0.00 | 0.00 | 0.00 | 87 | 1008.6 |
| 20260509063756 | 56 | 125 | 0.0 | 1.0 | 0.00 | 0.00 | 0.00 | 86 | 1008.8 |
| 20260509062727 | 56 | 125 | 0.0 | 2.0 | 0.00 | 0.00 | 0.00 | 86 | 1009.2 |
| 20260509061744 | 56 | 331 | 0.0 | 1.0 | 0.00 | 0.00 | 0.00 | 85 | 1009.2 |
| 20260509060757 | 56 | 19 | 0.0 | 0.0 | 0.00 | 0.00 | 0.00 | 85 | 1009.3 |
| 20260509055747 | 56 | 5 | 0.0 | 1.0 | 0.00 | 0.00 | 0.00 | 84 | 1009.4 |
| 20260509054729 | 56 | 1 | 0.0 | 0.0 | 0.00 | 0.00 | 0.00 | 83 | 1009.4 |
| 20260509053750 | 56 | 1 | 0.0 | 1.0 | 0.00 | 0.00 | 0.00 | 83 | 1009.5 |
| 20260509052717 | 57 | 30 | 0.0 | 0.0 | 0.00 | 0.00 | 0.00 | 82 | 1009.8 |
| 20260509051647 | 57 | 50 | 0.0 | 1.0 | 0.00 | 0.00 | 0.00 | 82 | 1009.8 |
| 20260509045559 | 57 | 37 | 0.0 | 0.0 | 0.00 | 0.00 | 0.00 | 80 | 1009.7 |
| 20260509044531 | 57 | 342 | 0.0 | 0.0 | 0.00 | 0.00 | 0.00 | 80 | 1009.7 |
| 20260509043549 | 58 | 316 | 0.0 | 2.0 | 0.00 | 0.00 | 0.00 | 79 | 1009.6 |
| 20260509042552 | 58 | 97 | 0.0 | 5.0 | 0.00 | 0.00 | 0.00 | 79 | 1009.6 |
| 20260509040431 | 57 | 328 | 0.0 | 1.0 | 0.00 | 0.00 | 0.00 | 78 | 1009.6 |
| 20260509035412 | 57 | 1 | 0.0 | 1.0 | 0.00 | 0.00 | 0.00 | 78 | 1009.8 |
| 20260509033310 | 56 | 15 | 0.0 | 0.0 | 0.00 | 0.00 | 0.00 | 80 | 1009.9 |
| 20260509032257 | 56 | 49 | 0.0 | 0.0 | 0.00 | 0.00 | 0.00 | 80 | 1009.8 |
| 20260509030125 | 56 | 49 | 0.0 | 0.0 | 0.00 | 0.00 | 0.00 | 78 | 1010.0 |
| 20260509023931 | 56 | 49 | 0.0 | 0.0 | 0.00 | 0.00 | 0.00 | 77 | 1010.4 |
| 20260509022925 | 57 | 49 | 0.0 | 0.0 | 0.00 | 0.00 | 0.00 | 76 | 1010.4 |
| 20260509021930 | 57 | 49 | 0.0 | 0.0 | 0.00 | 0.00 | 0.00 | 73 | 1010.2 |
| 20260509020924 | 57 | 49 | 0.0 | 0.0 | 0.00 | 0.00 | 0.00 | 72 | 1010.2 |
| 20260509015913 | 57 | 49 | 0.0 | 0.0 | 0.00 | 0.00 | 0.00 | 71 | 1010.3 |
| 20260509012552 | 58 | 49 | 0.0 | 0.0 | 0.00 | 0.00 | 0.00 | 74 | 1010.0 |
| 20260509011607 | 58 | 49 | 0.0 | 0.0 | 0.00 | 0.00 | 0.00 | 69 | 1010.0 |
| 20260509010539 | 59 | 49 | 0.0 | 1.0 | 0.00 | 0.00 | 0.00 | 71 | 1009.8 |
| 20260509005559 | 59 | 49 | 0.0 | 0.0 | 0.00 | 0.00 | 0.00 | 68 | 1009.6 |
| 20260509004549 | 60 | 49 | 0.0 | 1.0 | 0.00 | 0.00 | 0.00 | 68 | 1009.6 |
| 20260509003603 | 60 | 49 | 0.0 | 0.0 | 0.00 | 0.00 | 0.00 | 65 | 1009.6 |
| 20260509002558 | 61 | 49 | 0.0 | 0.0 | 0.00 | 0.00 | 0.00 | 63 | 1009.6 |
| 20260508235234 | 65 | 44 | 0.0 | 0.0 | 0.00 | 0.00 | 0.00 | 53 | 1009.6 |
| 20260508234227 | 66 | 105 | 0.0 | 0.0 | 0.00 | 0.00 | 0.00 | 51 | 1009.3 |
| 20260508224628 | 70 | 126 | 0.0 | 3.0 | 0.00 | 0.00 | 0.00 | 45 | 1009.3 |
| 20260508222539 | 71 | 189 | 0.0 | 5.0 | 0.00 | 0.00 | 0.00 | 41 | 1009.0 |
| 20260508220417 | 71 | 93 | 0.0 | 4.0 | 0.00 | 0.00 | 0.00 | 42 | 1008.9 |
| 20260508215438 | 71 | 160 | 0.0 | 3.0 | 0.00 | 0.00 | 0.00 | 45 | 1008.9 |
| 20260508214421 | 71 | 182 | 0.0 | 6.0 | 0.00 | 0.00 | 0.00 | 43 | 1008.9 |
| 20260508213402 | 72 | 213 | 1.0 | 9.0 | 0.00 | 0.00 | 0.00 | 42 | 1008.9 |
| 20260508212337 | 72 | 127 | 1.0 | 9.0 | 0.00 | 0.00 | 0.00 | 42 | 1008.9 |
| 20260508211347 | 72 | 117 | 1.0 | 4.0 | 0.00 | 0.00 | 0.00 | 42 | 1009.2 |
| 20260508205148 | 73 | 150 | 0.0 | 5.0 | 0.00 | 0.00 | 0.00 | 40 | 1009.4 |
| 20260508204133 | 73 | 150 | 1.0 | 5.0 | 0.00 | 0.00 | 0.00 | 40 | 1009.4 |
| 20260508203118 | 73 | 307 | 0.0 | 5.0 | 0.00 | 0.00 | 0.00 | 39 | 1009.4 |
| 20260508202109 | 72 | 135 | 1.0 | 5.0 | 0.00 | 0.00 | 0.00 | 39 | 1009.4 |
| 20260508201107 | 72 | 110 | 1.0 | 5.0 | 0.00 | 0.00 | 0.00 | 40 | 1009.4 |
| 20260508194909 | 72 | 110 | 1.0 | 6.0 | 0.00 | 0.00 | 0.00 | 42 | 1009.7 |
| 20260508192755 | 72 | 169 | 1.0 | 4.0 | 0.00 | 0.01 | 0.00 | 44 | 1009.9 |
| 20260508191813 | 72 | 1 | 1.0 | 4.0 | 0.00 | 0.01 | 0.00 | 44 | 1009.9 |
| 20260508190748 | 72 | 143 | 1.0 | 4.0 | 0.00 | 0.01 | 0.00 | 44 | 1010.2 |
| 20260508185714 | 72 | 42 | 1.0 | 4.0 | 0.00 | 0.01 | 0.00 | 47 | 1010.4 |
| 20260508182500 | 70 | 56 | 1.0 | 6.0 | 0.00 | 0.02 | 0.00 | 41 | 1010.9 |
| 20260508181525 | 70 | 184 | 1.0 | 3.0 | 0.00 | 0.02 | 0.00 | 40 | 1010.9 |
| 20260508174300 | 70 | 146 | 0.0 | 4.0 | 0.00 | 0.03 | 0.00 | 45 | 1011.1 |
| 20260508173246 | 69 | 184 | 0.0 | 3.0 | 0.00 | 0.03 | 0.00 | 45 | 1011.1 |
| 20260508172300 | 69 | 216 | 0.0 | 3.0 | 0.00 | 0.03 | 0.00 | 50 | 1011.2 |
| 20260508171228 | 68 | 105 | 0.0 | 3.0 | 0.00 | 0.03 | 0.00 | 53 | 1011.6 |
| 20260508170230 | 68 | 242 | 0.0 | 3.0 | 0.00 | 0.04 | 0.00 | 46 | 1011.6 |
| 20260508165206 | 67 | 3 | 1.0 | 3.0 | 0.00 | 0.04 | 0.00 | 55 | 1011.8 |
| 20260508164213 | 67 | 356 | 0.0 | 3.0 | 0.00 | 0.05 | 0.00 | 53 | 1012.1 |
| 20260508163233 | 67 | 322 | 0.0 | 5.0 | 0.00 | 0.05 | 0.00 | 48 | 1012.1 |
| 20260508162235 | 67 | 174 | 1.0 | 5.0 | 0.00 | 0.06 | 0.00 | 49 | 1012.2 |
| 20260508161235 | 67 | 4 | 0.0 | 3.0 | 0.00 | 0.06 | 0.00 | 51 | 1012.3 |
| 20260508160252 | 67 | 118 | 0.0 | 1.0 | 0.00 | 0.07 | 0.00 | 53 | 1012.3 |
| 20260508155244 | 66 | 208 | 0.0 | 2.0 | 0.00 | 0.07 | 0.00 | 57 | 1012.6 |
| 20260508153141 | 65 | 303 | 1.0 | 3.0 | 0.00 | 0.09 | 0.00 | 60 | 1012.6 |
| 20260508151016 | 64 | 330 | 1.0 | 6.0 | 0.00 | 0.11 | 0.00 | 63 | 1012.6 |
| 20260508144855 | 64 | 167 | 0.0 | 2.0 | 0.00 | 0.13 | 0.00 | 66 | 1012.6 |
| 20260508142704 | 62 | 350 | 0.0 | 0.0 | 0.00 | 0.14 | 0.00 | 73 | 1012.5 |
| 20260508140533 | 61 | 356 | 1.0 | 3.0 | 0.00 | 0.16 | 0.00 | 71 | 1012.3 |
| 20260508135517 | 60 | 345 | 0.0 | 3.0 | 0.00 | 0.17 | 0.00 | 74 | 1012.3 |
| 20260508134519 | 59 | 1 | 0.0 | 1.0 | 0.00 | 0.18 | 0.00 | 76 | 1012.3 |
| 20260508133515 | 57 | 1 | 0.0 | 2.0 | 0.00 | 0.18 | 0.00 | 82 | 1012.3 |
| 20260508132454 | 55 | 179 | 0.0 | 2.0 | 0.00 | 0.19 | 0.00 | 88 | 1012.3 |
| 20260508130344 | 51 | 195 | 0.0 | 1.0 | 0.00 | 0.19 | 0.00 | 96 | 1012.4 |
| 20260508125322 | 51 | 120 | 0.0 | 1.0 | 0.00 | 0.19 | 0.00 | 98 | 1012.3 |
| 20260508124253 | 50 | 92 | 0.0 | 2.0 | 0.00 | 0.19 | 0.00 | 98 | 1012.2 |
| 20260508123255 | 50 | 138 | 0.0 | 0.0 | 0.00 | 0.19 | 0.00 | 98 | 1012.2 |